www.pogodaiklimat.ru

АРХИВ ПОГОДЫ в Олбани

Время (UTC), дата Ветер
(напр.,м/с)
 
Видим.   Явления Облачность Т
(С)
Тd
(С)
f
(%)
Тe
(С)
Тes
(С)
Комфортность

P
(гПа)

Po
(гПа)
Тmin
(С)
Tmax
(С)
R
(мм)
SD
(см)
09:51 14.07 ЮЗ  16 км    2/0 2700 м
[средняя] 
+22.2  +17.2  73  +27  +27  душно  1012.2  1001.7         
10:51 14.07   16 км    2/0 2100 м
[средняя] 
+25.6  +18.3  64  +30  +32  душно  1012.5  1002.3  +20.6  +25.6     
11:51 14.07 З  16 км    2/2 1050 м  +26.1  +18.3  62  +31  +33  очень
душно 
1012.8  1002.7         
12:51 14.07 З  6
{10} 
16 км    5/5 1800 м
[средняя] 
+27.2  +17.2  54  +31  +32  душно  1012.9  1002.7         
13:51 14.07 СЗ  8
{11} 
16 км    8/5 1140 м
[средняя] 
+28.3  +17.2  51  +32  +33  душно  1013.1  1003.0         
14:51 14.07 З  16 км    5/5 1140 м
[средняя] 
+28.3  +15.6  46  +31  +34  душно  1013.5  1003.3         
15:51 14.07 СЗ  5
{9} 
16 км    2/2 1440 м
[средняя] 
+28.3  +15.6  46  +31  +37  душно  1013.3  1003.0         
16:51 14.07 З  7
{11} 
16 км    2/2 1440 м
[средняя] 
+28.9  +15.6  44  +32  +35  душно  1013.0  1002.7  +25.0  +29.4     
17:51 14.07 З  16 км    5/5 1500 м  +29.4  +16.1  45  +33  +34  душно  1012.8  1002.7         
18:51 14.07 З  8
{11} 
16 км    2/2 1500 м
[средняя] 
+28.9  +15.6  44  +32  +33  душно  1013.2  1003.0         
19:51 14.07 СЗ  8
{13} 
16 км    8/2 1500 м
[средняя верхняя] 
+28.9  +15.0  43  +31  +32  жарко  1013.3  1003.0         
20:51 14.07 З  10
{13} 
16 км    5/2 1500 м
[средняя верхняя] 
+27.8  +14.4  44  +30  +30  жарко  1013.5  1003.3         
21:51 14.07 З  7
{12} 
16 км    2/2 1500 м
[средняя верхняя] 
+26.7  +13.9  45  +29  +29  жарко  1014.0  1003.7         
22:51 14.07 З  16 км    5/2 1500 м
[верхняя] 
+25.0  +14.4  52  +28  +28  жарко  1014.6  1004.4  +25.0  +30.0     
23:51 14.07 З  5
{10} 
16 км    5/2 1500 м
[верхняя] 
+23.9  +14.4  55  +26  +26  жарко  1015.4  1005.0         
00:51 15.07 З  16 км    5/2 1500 м
[верхняя] 
+22.2  +14.4  61  +25  +25  комфорт  1016.1  1005.7         
01:51 15.07 СЗ  16 км    5/0 7500 м
[верхняя] 
+22.2  +13.9  59  +25  +25  комфорт  1016.2  1005.7         
02:51 15.07 СЗ  16 км    5/0 7500 м
[верхняя] 
+20.6  +13.9  65  +23  +23  комфорт  1016.5  1006.0         
03:51 15.07 СЗ  16 км    5/0 7500 м
[верхняя] 
+20.6  +13.3  63  +23  +23  комфорт  1017.1  1006.7         
04:51 15.07 СЗ  16 км    5/0 7500 м
[верхняя] 
+19.4  +13.9  70  +21  +21  комфорт  1017.3  1007.0  +19.4  +25.0     
05:51 15.07 СЗ  16 км    2/0 7500 м
[верхняя] 
+18.9  +13.9  73  +20  +20    1017.0  1006.7         
06:51 15.07 СЗ  16 км    5/0 6600 м
[верхняя] 
+18.9  +13.9  73  +20  +20    1016.9  1006.7         
07:51 15.07   16 км    2/0 7500 м
[верхняя] 
+17.2  +13.3  78  +17  +17    1017.3  1007.0         
08:51 15.07 СВ  16 км    8/0 4500 м
[средняя верхняя] 
+16.1  +13.3  83  +16  +16    1017.7  1007.4         
09:51 15.07 Ю  16 км    5/0 4500 м
[средняя верхняя] 
+17.8  +14.4  80  +19  +19    1017.9  1007.4         
10:51 15.07 З  16 км    5/0 4500 м
[средняя верхняя] 
+19.4  +15.0  76  +21  +23  комфорт  1018.3  1008.0  +15.6  +20.0     
11:51 15.07 З  16 км    5/0 4500 м
[средняя верхняя] 
+20.6  +15.0  70  +24  +27  комфорт  1018.5  1008.0         
12:51 15.07 СЗ  16 км    5/5 840 м
[верхняя] 
+22.2  +15.0  64  +26  +29  душно  1018.6  1008.0         
13:51 15.07 нст  16 км    5/5 1080 м
[верхняя] 
+24.4  +13.9  52  +27  +33  жарко  1018.4  1008.0         
14:51 15.07 С  16 км    5/5 1140 м
[верхняя] 
+26.1  +13.9  47  +28  +33  жарко  1018.6  1008.0         
15:51 15.07 СВ  16 км    5/5 1380 м
[верхняя] 
+26.1  +12.8  44  +28  +33  жарко  1018.1  1007.7         
16:51 15.07 СЗ  16 км    5/5 1500 м
[верхняя] 
+27.2  +11.7  38  +28  +35  жарко  1017.5  1007.0  +19.4  +27.8     
17:51 15.07 СЗ  6
{9} 
16 км    5/5 1800 м
[верхняя] 
+28.3  +12.2  37  +29  +32  жарко  1017.2  1006.7         
18:51 15.07 З  16 км    8/5 1800 м
[верхняя] 
+28.9  +12.8  37  +30  +35  жарко  1016.6  1006.0         
19:51 15.07 ЮЗ  16 км    8/2 1800 м
[верхняя] 
+28.9  +13.3  38  +30  +36  жарко  1016.3  1006.0         
20:51 15.07 З  16 км    8/2 1800 м
[средняя верхняя] 
+28.3  +12.8  38  +30  +32  жарко  1016.2  1005.7         
21:51 15.07 З  16 км    8/2 1800 м
[средняя верхняя] 
+27.8  +13.3  41  +30  +31  жарко  1016.2  1005.7         
22:51 15.07 З  16 км    8/2 1950 м
[средняя верхняя] 
+26.1  +13.9  47  +28  +29  жарко  1016.4  1006.0  +26.1  +29.4     
23:51 15.07 З  16 км    8/0 6000 м
[средняя верхняя] 
+23.3  +13.9  55  +27  +27  душно  1016.8  1006.4         
00:51 16.07 З  16 км    8/0 6000 м
[средняя верхняя] 
+22.8  +14.4  59  +26  +26  жарко  1017.2  1006.7         
01:51 16.07 З  16 км    8/0 6000 м
[средняя верхняя] 
+21.1  +14.4  66  +24  +24  комфорт  1017.4  1007.0         
02:51 16.07 З  16 км    8/0 6000 м
[средняя верхняя] 
+20.0  +14.4  70  +22  +22  комфорт  1017.7  1007.4         
03:51 16.07   16 км    5/0 7500 м
[верхняя] 
+18.9  +13.9  73  +20  +20    1017.8  1007.4         
04:51 16.07   16 км    2/0 7500 м
[верхняя] 
+18.3  +14.4  78  +19  +19    1017.8  1007.4  +18.3  +26.1     
05:51 16.07   16 км    ясно  +17.8  +14.4  80  +18  +18    1017.7  1007.4         
06:51 16.07   16 км    ясно  +16.7  +13.9  84  +17  +17    1017.7  1007.4         
07:51 16.07   16 км    2/0 6600 м
[верхняя] 
+16.1  +13.9  87  +16  +16    1017.8  1007.4         
08:51 16.07   16 км    8/0 4200 м
[средняя верхняя] 
+16.7  +13.9  84  +17  +17    1018.3  1008.0         

 

Местоположение метеостанции Albany International Airport: широта 42.7481 долгота -73.8017 высота над уровнем моря 87 м.

В архиве по умолчанию представлена погода в Олбани за последние 1-2 суток. Обновление информации о фактической погоде в базе происходит ежечасно! Архивные данные за месяц целиком и за предыдущие месяцы Вы можете получить, выбрав интересующий диапазон дат из раскрывающегося списка и нажав кнопку "Ввод!".

Внимание! Архив погоды МЕТАР в базе сайта в настоящее время начинается c 1 января 2011 г. Нет смысла пытаться выбрать более раннюю дату.

Внимание! Время в таблицах - всемирное. Для получения местного времени необходимо прибавить поправку, которая в Олбани равна -5 ч.

Ветер - указаны скорость ветра в м/с и направление, откуда дует ветер: С - северный, СВ - северо-восточный, В - восточный, ЮВ - юго-восточный, Ю - южный, ЮЗ - юго-западный, З - западный, СЗ - северо-западный.
Видимость - горизонтальная дальность видимости в метрах или километрах. При видимости от 1 до 10 км при отсутствии осадков обычно наблюдается дымка, при ухудшении видимости до 1 км и менее - туман. В сухую погоду видимость может ухудшаться дымом, пылью или мглою.
Атмосферные явления - указаны явления, наблюдавшиеся в указанный момент времени.
Облачность - указаны через наклонную черту верхняя и нижняя облачность в баллах и высота нижней границы облаков в метрах. Внимание: облачность, как и прочие метеорологические величины в США измеряются автоматическими метеостанциями. Указанные значения в баллах носят условный характер и показывают процент времени, в течение которого, в среднем, лазерный луч высотомера отражался от облаков обратно.
T - Температура воздуха - температура, измеренная на высоте 2 м над землей.
Td - Температура точки росы - температура, при понижении до которой содержащийся в воздухе водяной пар достигнет насыщения.
f - Относительная влажность воздуха - влажноcть воздуха, измеренная на высоте 2 м над землей.
Te - Эффективная температура - температура, которую ощущает одетый по сезону человек в тени. Характеристика душности погоды. При расчете учитывается влияние влажности воздуха и скорости ветра на теплоощущения человека.
Tes - Эффективная температура на солнце - температура, которую ощущает человек, с поправкой на солнечный нагрев. Характеристика знойности погоды. Зависит от высоты солнца над горизонтом, облачности и скорости ветра. Ночью, в пасмурную погоду, а также при ветре 12 м/с и более поправка равна нулю.
P - Атмосферное давление - приведенное к уровню моря атмосферное давление.
Po - Атмосферное давление - измеренное на уровне метеостанции атмосферное давление.
Tmin - Минимальная температура - минимум температуры воздуха на высоте 2 м над землей.
Tmax - Максимальная температура - максимум температуры воздуха на высоте 2 м над землей.
R - Количество осадков - Количество выпавших осадков за 3 или 6 часов, мм.
SD - Снежный покров - Высота снежного покрова, см.